Location: Boissi�res
(45.2500°N, 2.3667°E)
Time: 05:34:59
(UTC+00:00)

SL-4 R/B - Pass Details

Date: 03 March 2021
Orbit: 428 x 663 km, 51.6° (Epoch: 13 April)

Event Time Altitude Azimuth Distance (km) Brightness Sun altitude
Rises 19:50:18 0° 299° (WNW) 2,457 6.7 -23.4°
Reaches altitude 10° 19:52:30 10° 303° (WNW) 1,560 5.3 -23.8°
Enters shadow 19:54:49 36° 323° (NW) 703 2.9 -24.2°
